THA628 VHHH-RKSI

Flight info

Callsign THA628
Flight time 2h 51m
Altitude 39000
Route DALOL V631 ENVAR M750 ANLOT B1 APU DCT DRAKE Q11 WP900 L4 LIPLO Y741 ATOTI Y722 OLMEN OLMEN1Y
Aircraft B772/H-SDE2E3FGHIJ5LORVWXY/LB1D1

Departure

Time 2026-05-04 01:10
Airport Hong Kong International Airport (VHHH)

Arrival

Time 2026-05-04 04:01
Airport Incheon International Airport (RKSI)
Time Latitude Longitude Altitude Speed Heading
2026-05-04 00:56 22.30951 113.92480 41 ft 0 kts 115°
2026-05-04 00:58 22.30954 113.92471 41 ft 4 kts 115°
2026-05-04 00:58 22.30966 113.92445 39 ft 4 kts 116°
2026-05-04 00:58 22.30979 113.92422 39 ft 4 kts 140°
2026-05-04 00:58 22.30996 113.92412 37 ft 4 kts 185°
2026-05-04 00:59 22.31014 113.92417 39 ft 4 kts 206°
2026-05-04 00:59 22.31035 113.92429 37 ft 1 kts 206°
2026-05-04 00:59 22.31036 113.92429 37 ft 0 kts 206°
2026-05-04 01:03 22.30976 113.92398 41 ft 12 kts 206°
2026-05-04 01:03 22.30902 113.92359 41 ft 12 kts 206°
2026-05-04 01:03 22.30825 113.92329 41 ft 12 kts 180°
2026-05-04 01:03 22.30743 113.92332 41 ft 12 kts 201°
2026-05-04 01:04 22.30696 113.92261 41 ft 12 kts 248°
2026-05-04 01:04 22.30668 113.92176 41 ft 12 kts 251°
2026-05-04 01:04 22.30640 113.92086 42 ft 17 kts 251°
2026-05-04 01:04 22.30584 113.91915 41 ft 26 kts 251°
2026-05-04 01:05 22.30524 113.91732 41 ft 26 kts 251°
2026-05-04 01:05 22.30465 113.91548 41 ft 26 kts 251°
2026-05-04 01:05 22.30406 113.91365 41 ft 26 kts 251°
2026-05-04 01:05 22.30347 113.91180 39 ft 26 kts 251°
2026-05-04 01:06 22.30288 113.90997 41 ft 26 kts 251°
2026-05-04 01:06 22.30229 113.90814 41 ft 26 kts 250°
2026-05-04 01:06 22.30168 113.90631 41 ft 26 kts 251°
2026-05-04 01:06 22.30110 113.90450 41 ft 26 kts 251°
2026-05-04 01:07 22.30051 113.90266 41 ft 26 kts 251°
2026-05-04 01:07 22.29992 113.90082 41 ft 26 kts 251°
2026-05-04 01:07 22.29934 113.89902 41 ft 17 kts 250°
2026-05-04 01:07 22.29900 113.89800 41 ft 14 kts 250°
2026-05-04 01:08 22.29862 113.89732 41 ft 11 kts 204°
2026-05-04 01:08 22.29791 113.89748 41 ft 11 kts 158°
2026-05-04 01:08 22.29736 113.89770 41 ft 0 kts 160°
2026-05-04 01:09 22.29723 113.89775 41 ft 3 kts 160°
2026-05-04 01:09 22.29686 113.89792 41 ft 9 kts 152°
2026-05-04 01:09 22.29653 113.89844 41 ft 9 kts 105°
2026-05-04 01:09 22.29658 113.89907 41 ft 9 kts 76°
2026-05-04 01:10 22.29704 113.90054 41 ft 48 kts 71°
2026-05-04 01:10 22.29903 113.90670 41 ft 123 kts 70°
2026-05-04 01:10 22.30246 113.91722 312 ft 158 kts 70°
2026-05-04 01:10 22.30575 113.92820 1258 ft 151 kts 72°
2026-05-04 01:11 22.30885 113.93935 2043 ft 157 kts 69°
2026-05-04 01:11 22.31257 113.95088 2377 ft 175 kts 70°
2026-05-04 01:11 22.31686 113.96430 2635 ft 204 kts 68°
2026-05-04 01:11 22.32201 113.97952 2884 ft 226 kts 68°
2026-05-04 01:12 22.32756 113.99601 3316 ft 243 kts 69°
2026-05-04 01:12 22.33348 114.01398 3685 ft 262 kts 69°
2026-05-04 01:12 22.33862 114.03329 4145 ft 274 kts 83°
2026-05-04 01:12 22.33626 114.05406 4692 ft 286 kts 112°
2026-05-04 01:13 22.32555 114.07174 5530 ft 282 kts 137°
2026-05-04 01:13 22.30944 114.08353 6240 ft 282 kts 161°
2026-05-04 01:13 22.29039 114.08789 6897 ft 280 kts 182°
2026-05-04 01:13 22.27118 114.08714 7446 ft 283 kts 185°
2026-05-04 01:14 22.25133 114.08680 8110 ft 286 kts 184°
2026-05-04 01:14 22.23145 114.08669 8836 ft 287 kts 185°
2026-05-04 01:14 22.21141 114.08654 9519 ft 289 kts 185°
2026-05-04 01:14 22.19117 114.08636 10159 ft 292 kts 185°
2026-05-04 01:15 22.17064 114.08959 10432 ft 316 kts 162°
2026-05-04 01:15 22.15191 114.10386 10604 ft 350 kts 133°
2026-05-04 01:15 22.13888 114.12707 10774 ft 375 kts 118°
2026-05-04 01:15 22.12748 114.15325 11180 ft 392 kts 117°
2026-05-04 01:16 22.11592 114.17976 11850 ft 400 kts 118°
2026-05-04 01:16 22.10350 114.20684 12699 ft 405 kts 120°
2026-05-04 01:16 22.09062 114.23407 13616 ft 410 kts 120°
2026-05-04 01:16 22.07632 114.26052 14283 ft 409 kts 131°
2026-05-04 01:17 22.05549 114.28085 14943 ft 401 kts 150°
2026-05-04 01:17 22.03216 114.29803 15617 ft 410 kts 149°
2026-05-04 01:17 22.00877 114.31595 16569 ft 413 kts 148°
2026-05-04 01:17 21.98555 114.33419 17593 ft 414 kts 148°
2026-05-04 01:18 21.96224 114.35260 18490 ft 417 kts 148°
2026-05-04 01:18 21.93900 114.37095 19181 ft 424 kts 148°
2026-05-04 01:18 21.91492 114.38991 19817 ft 432 kts 148°
2026-05-04 01:18 21.89048 114.40913 20510 ft 438 kts 148°
2026-05-04 01:19 21.86612 114.42903 21151 ft 443 kts 142°
2026-05-04 01:19 21.84622 114.45519 21651 ft 464 kts 123°
2026-05-04 01:19 21.83439 114.48793 22277 ft 472 kts 108°
2026-05-04 01:19 21.82610 114.52249 22795 ft 482 kts 107°
2026-05-04 01:20 21.81772 114.55760 23409 ft 488 kts 107°
2026-05-04 01:20 21.80916 114.59269 23983 ft 492 kts 107°
2026-05-04 01:20 21.80022 114.62836 24539 ft 496 kts 108°
2026-05-04 01:20 21.79103 114.66428 25075 ft 499 kts 108°
2026-05-04 01:21 21.78170 114.70038 25593 ft 504 kts 108°
2026-05-04 01:21 21.77224 114.73688 26049 ft 508 kts 108°
2026-05-04 01:21 21.76273 114.77358 26532 ft 512 kts 108°
2026-05-04 01:21 21.75316 114.81058 27026 ft 515 kts 108°
2026-05-04 01:22 21.74406 114.84794 27492 ft 519 kts 103°
2026-05-04 01:22 21.74043 114.88679 27904 ft 526 kts 92°
2026-05-04 01:22 21.74082 114.92577 28318 ft 530 kts 89°
2026-05-04 01:22 21.74206 114.96551 28725 ft 533 kts 89°
2026-05-04 01:23 21.74313 115.00552 29107 ft 537 kts 90°
2026-05-04 01:23 21.74366 115.04583 29472 ft 540 kts 91°
2026-05-04 01:23 21.74369 115.08634 29823 ft 543 kts 91°
2026-05-04 01:23 21.74346 115.12703 30145 ft 546 kts 91°
2026-05-04 01:24 21.74318 115.16797 30431 ft 548 kts 91°
2026-05-04 01:24 21.74299 115.20901 30722 ft 550 kts 91°
2026-05-04 01:24 21.74286 115.24964 31005 ft 551 kts 91°
2026-05-04 01:24 21.74279 115.29095 31247 ft 553 kts 91°
2026-05-04 01:25 21.74272 115.33241 31492 ft 555 kts 90°
2026-05-04 01:25 21.74265 115.37389 31782 ft 555 kts 90°
2026-05-04 01:25 21.74255 115.41532 32136 ft 553 kts 90°
2026-05-04 01:25 21.74244 115.45663 32502 ft 552 kts 90°
2026-05-04 01:26 21.74230 115.49781 32862 ft 550 kts 90°
2026-05-04 01:26 21.74216 115.53893 33204 ft 549 kts 90°
2026-05-04 01:26 21.74201 115.57946 33543 ft 548 kts 90°
2026-05-04 01:26 21.74186 115.62037 33883 ft 547 kts 90°
2026-05-04 01:27 21.74172 115.66130 34221 ft 546 kts 90°
2026-05-04 01:27 21.74157 115.70204 34524 ft 545 kts 90°
2026-05-04 01:27 21.74142 115.74281 34806 ft 545 kts 90°
2026-05-04 01:27 21.74126 115.78355 35084 ft 544 kts 90°
2026-05-04 01:28 21.74108 115.82418 35396 ft 543 kts 90°
2026-05-04 01:28 21.74090 115.86477 35717 ft 542 kts 90°
2026-05-04 01:28 21.74070 115.90478 36040 ft 541 kts 90°
2026-05-04 01:28 21.74050 115.94521 36356 ft 541 kts 90°
2026-05-04 01:29 21.74028 115.98561 36671 ft 540 kts 91°
2026-05-04 01:29 21.74006 116.02594 36985 ft 539 kts 91°
2026-05-04 01:29 21.73982 116.06621 37295 ft 539 kts 91°
2026-05-04 01:29 21.73958 116.10650 37606 ft 538 kts 91°
2026-05-04 01:30 21.73932 116.14675 37909 ft 537 kts 91°
2026-05-04 01:30 21.73906 116.18688 38196 ft 537 kts 91°
2026-05-04 01:30 21.73879 116.22646 38480 ft 537 kts 91°
2026-05-04 01:30 21.73851 116.26659 38749 ft 536 kts 91°
2026-05-04 01:31 21.73822 116.30664 38966 ft 536 kts 91°
2026-05-04 01:31 21.73760 116.38705 39042 ft 537 kts 91°
2026-05-04 01:32 21.73696 116.46704 39038 ft 533 kts 91°
2026-05-04 01:32 21.73628 116.54614 39049 ft 532 kts 91°
2026-05-04 01:33 21.73556 116.62563 39049 ft 532 kts 91°
2026-05-04 01:33 21.73480 116.70518 39053 ft 532 kts 91°
2026-05-04 01:34 21.74069 116.78444 39051 ft 533 kts 78°
2026-05-04 01:34 21.76010 116.86111 39049 ft 531 kts 67°
2026-05-04 01:35 21.78718 116.93445 39052 ft 532 kts 66°
2026-05-04 01:35 21.81486 117.00835 39048 ft 533 kts 66°
2026-05-04 01:36 21.84199 117.08262 39050 ft 534 kts 66°
2026-05-04 01:36 21.86883 117.15714 39047 ft 534 kts 67°
2026-05-04 01:37 21.89567 117.23175 39046 ft 534 kts 67°
2026-05-04 01:37 21.92232 117.30580 39045 ft 534 kts 67°
2026-05-04 01:38 21.94912 117.38038 39044 ft 534 kts 67°
2026-05-04 01:38 21.97589 117.45498 39042 ft 534 kts 67°
2026-05-04 01:39 22.00639 117.52755 39050 ft 530 kts 57°
2026-05-04 01:39 22.04457 117.59469 39054 ft 529 kts 54°
2026-05-04 01:40 22.08363 117.66203 39048 ft 530 kts 55°
2026-05-04 01:40 22.12222 117.72979 39038 ft 531 kts 55°
2026-05-04 01:41 22.16061 117.79791 39043 ft 531 kts 56°
2026-05-04 01:41 22.19874 117.86565 39042 ft 532 kts 55°
2026-05-04 01:42 22.23711 117.93382 39042 ft 532 kts 55°
2026-05-04 01:42 22.27551 118.00209 39043 ft 532 kts 55°
2026-05-04 01:43 22.31465 118.06964 39038 ft 531 kts 54°
2026-05-04 01:43 22.35436 118.13689 39044 ft 531 kts 54°
2026-05-04 01:44 22.39359 118.20393 39047 ft 532 kts 54°
2026-05-04 01:44 22.43259 118.27186 39044 ft 532 kts 55°
2026-05-04 01:45 22.47110 118.34026 39043 ft 532 kts 55°
2026-05-04 01:45 22.52870 118.44237 39044 ft 533 kts 55°
2026-05-04 01:46 22.56732 118.51075 39046 ft 533 kts 55°
2026-05-04 01:46 22.60616 118.57907 39033 ft 533 kts 55°
2026-05-04 01:47 22.64520 118.64736 39048 ft 533 kts 54°
2026-05-04 01:47 22.68417 118.71567 39050 ft 534 kts 55°
2026-05-04 01:48 22.72285 118.78367 39036 ft 534 kts 55°
2026-05-04 01:48 22.76177 118.85222 39032 ft 534 kts 55°
2026-05-04 01:49 22.80067 118.92082 39040 ft 534 kts 55°
2026-05-04 01:49 22.83954 118.98945 39042 ft 535 kts 55°
2026-05-04 01:50 22.87844 119.05823 39038 ft 535 kts 55°
2026-05-04 01:50 22.91707 119.12660 39039 ft 535 kts 55°
2026-05-04 01:51 22.95596 119.19555 39036 ft 536 kts 55°
2026-05-04 01:51 22.99484 119.26456 39032 ft 536 kts 55°
2026-05-04 01:52 23.03368 119.33361 39035 ft 536 kts 55°
2026-05-04 01:52 23.07256 119.40280 39033 ft 537 kts 55°
2026-05-04 01:53 23.11113 119.47155 39029 ft 537 kts 55°
2026-05-04 01:53 23.14996 119.54086 39024 ft 537 kts 55°
2026-05-04 01:54 23.18875 119.61019 39022 ft 537 kts 55°
2026-05-04 01:54 23.22751 119.67962 39025 ft 537 kts 55°
2026-05-04 01:55 23.26596 119.74861 39026 ft 537 kts 55°
2026-05-04 01:55 23.30466 119.81818 39023 ft 538 kts 56°
2026-05-04 01:56 23.34358 119.88772 39027 ft 538 kts 53°
2026-05-04 01:56 23.38913 119.95157 39019 ft 531 kts 42°
2026-05-04 01:57 23.44169 120.00661 39026 ft 527 kts 38°
2026-05-04 01:57 23.49558 120.06098 39022 ft 528 kts 38°
2026-05-04 01:58 23.54923 120.11582 39016 ft 529 kts 38°
2026-05-04 01:58 23.60273 120.17111 39018 ft 530 kts 38°
2026-05-04 01:59 23.65587 120.22619 39020 ft 531 kts 38°
2026-05-04 01:59 23.70938 120.28166 39026 ft 531 kts 38°
2026-05-04 02:00 23.76295 120.33722 39026 ft 531 kts 38°
2026-05-04 02:00 23.81650 120.39284 39036 ft 532 kts 38°
2026-05-04 02:01 23.86974 120.44820 39036 ft 532 kts 38°
2026-05-04 02:01 23.92445 120.50219 39041 ft 527 kts 32°
2026-05-04 02:02 23.98329 120.54967 39047 ft 525 kts 30°
2026-05-04 02:02 24.04253 120.59635 39056 ft 525 kts 30°
2026-05-04 02:03 24.10145 120.64341 39238 ft 530 kts 30°
2026-05-04 02:03 24.13113 120.66735 39465 ft 529 kts 31°
2026-05-04 02:03 24.16070 120.69129 39742 ft 527 kts 31°
2026-05-04 02:04 24.19012 120.71513 40047 ft 525 kts 31°
2026-05-04 02:04 24.21939 120.73884 40332 ft 523 kts 31°
2026-05-04 02:04 24.24860 120.76250 40591 ft 522 kts 31°
2026-05-04 02:04 24.27778 120.78611 40801 ft 521 kts 31°
2026-05-04 02:05 24.30692 120.80969 40949 ft 522 kts 31°
2026-05-04 02:05 24.33579 120.83307 41012 ft 524 kts 31°
2026-05-04 02:05 24.39432 120.88056 41073 ft 522 kts 31°
2026-05-04 02:06 24.45239 120.92771 41102 ft 517 kts 31°
2026-05-04 02:06 24.51013 120.97470 41115 ft 517 kts 31°
2026-05-04 02:07 24.56794 121.02181 41134 ft 518 kts 31°
2026-05-04 02:07 24.62539 121.06871 41136 ft 518 kts 31°
2026-05-04 02:08 24.68327 121.11603 41136 ft 518 kts 31°
2026-05-04 02:08 24.74111 121.16339 41169 ft 520 kts 31°
2026-05-04 02:09 24.79931 121.21105 41160 ft 523 kts 31°
2026-05-04 02:09 24.85767 121.25893 41123 ft 521 kts 31°
2026-05-04 02:10 24.91515 121.30620 41138 ft 518 kts 31°
2026-05-04 02:10 24.97282 121.35362 41158 ft 517 kts 31°
2026-05-04 02:11 25.03055 121.40113 41164 ft 518 kts 31°
2026-05-04 02:11 25.08832 121.44876 41172 ft 519 kts 30°
2026-05-04 02:12 25.14619 121.49652 41167 ft 520 kts 31°
2026-05-04 02:12 25.20033 121.54939 41172 ft 529 kts 42°
2026-05-04 02:13 25.24895 121.61091 41159 ft 533 kts 44°
2026-05-04 02:13 25.29711 121.67312 41172 ft 532 kts 44°
2026-05-04 02:14 25.34564 121.73492 41162 ft 532 kts 44°
2026-05-04 02:14 25.39445 121.79661 41160 ft 533 kts 43°
2026-05-04 02:15 25.44324 121.85835 41153 ft 533 kts 44°
2026-05-04 02:15 25.49198 121.92019 41149 ft 534 kts 44°
2026-05-04 02:16 25.54073 121.98216 41145 ft 534 kts 44°
2026-05-04 02:16 25.58957 122.04418 41148 ft 533 kts 42°
2026-05-04 02:17 25.64302 122.09998 41151 ft 524 kts 31°
2026-05-04 02:17 25.70180 122.14600 41145 ft 520 kts 27°
2026-05-04 02:18 25.76190 122.19165 41150 ft 521 kts 27°
2026-05-04 02:18 25.82111 122.23731 41150 ft 522 kts 28°
2026-05-04 02:19 25.88058 122.28369 41151 ft 523 kts 28°
2026-05-04 02:19 25.94007 122.33020 41148 ft 523 kts 28°
2026-05-04 02:20 25.99965 122.37679 41151 ft 524 kts 28°
2026-05-04 02:20 26.05927 122.42344 41145 ft 524 kts 28°
2026-05-04 02:21 26.11891 122.47018 41146 ft 524 kts 28°
2026-05-04 02:21 26.17857 122.51699 41151 ft 525 kts 28°
2026-05-04 02:22 26.23818 122.56403 41148 ft 525 kts 28°
2026-05-04 02:22 26.29778 122.61121 41148 ft 525 kts 28°
2026-05-04 02:23 26.35737 122.65841 41150 ft 526 kts 28°
2026-05-04 02:23 26.41696 122.70566 41142 ft 526 kts 28°
2026-05-04 02:24 26.47657 122.75299 41143 ft 526 kts 28°
2026-05-04 02:24 26.52612 122.79236 41152 ft 526 kts 28°
2026-05-04 02:25 26.58577 122.83971 41157 ft 526 kts 27°
2026-05-04 02:25 26.64550 122.88694 41155 ft 526 kts 27°
2026-05-04 02:26 26.70528 122.93429 41158 ft 527 kts 27°
2026-05-04 02:26 26.76511 122.98179 41152 ft 527 kts 27°
2026-05-04 02:27 26.82492 123.02936 41158 ft 528 kts 27°
2026-05-04 02:27 26.88470 123.07709 41155 ft 528 kts 27°
2026-05-04 02:28 26.94456 123.12498 41155 ft 528 kts 27°
2026-05-04 02:28 27.00439 123.17289 41151 ft 529 kts 27°
2026-05-04 02:29 27.06424 123.22087 41159 ft 529 kts 27°
2026-05-04 02:29 27.12408 123.26892 41159 ft 529 kts 27°
2026-05-04 02:30 27.18399 123.31707 41159 ft 530 kts 27°
2026-05-04 02:30 27.24390 123.36530 41152 ft 530 kts 27°
2026-05-04 02:31 27.30380 123.41359 41166 ft 530 kts 27°
2026-05-04 02:31 27.36372 123.46196 41160 ft 530 kts 27°
2026-05-04 02:32 27.42360 123.51037 41161 ft 530 kts 27°
2026-05-04 02:32 27.48315 123.55857 41162 ft 531 kts 27°
2026-05-04 02:33 27.54310 123.60717 41159 ft 531 kts 27°
2026-05-04 02:33 27.60304 123.65582 41162 ft 531 kts 27°
2026-05-04 02:34 27.66248 123.70578 41159 ft 535 kts 30°
2026-05-04 02:34 27.72081 123.75817 41166 ft 536 kts 31°
2026-05-04 02:35 27.77918 123.81062 41162 ft 536 kts 30°
2026-05-04 02:35 27.83781 123.86275 41164 ft 536 kts 30°
2026-05-04 02:36 27.89651 123.91484 41162 ft 537 kts 30°
2026-05-04 02:36 27.95523 123.96709 41164 ft 537 kts 30°
2026-05-04 02:37 28.01397 124.01945 41163 ft 538 kts 30°
2026-05-04 02:37 28.07275 124.07189 41164 ft 538 kts 30°
2026-05-04 02:38 28.13152 124.12443 41167 ft 539 kts 30°
2026-05-04 02:38 28.19032 124.17707 41165 ft 539 kts 30°
2026-05-04 02:39 28.24917 124.22984 41164 ft 540 kts 30°
2026-05-04 02:39 28.30806 124.28272 41166 ft 540 kts 30°
2026-05-04 02:40 28.36698 124.33571 41164 ft 540 kts 30°
2026-05-04 02:40 28.42592 124.38879 41165 ft 541 kts 30°
2026-05-04 02:41 28.48453 124.44164 41163 ft 542 kts 30°
2026-05-04 02:41 28.54356 124.49496 41161 ft 542 kts 30°
2026-05-04 02:42 28.60261 124.54839 41159 ft 542 kts 30°
2026-05-04 02:42 28.66164 124.60187 41165 ft 543 kts 31°
2026-05-04 02:43 28.72072 124.65545 41161 ft 543 kts 30°
2026-05-04 02:43 28.78307 124.70158 41171 ft 528 kts 18°
2026-05-04 02:44 28.84937 124.73485 41166 ft 515 kts
2026-05-04 02:44 28.91709 124.76130 41166 ft 515 kts
2026-05-04 02:45 28.98510 124.78758 41162 ft 517 kts
2026-05-04 02:45 29.05327 124.81448 41167 ft 519 kts
2026-05-04 02:46 29.12160 124.84180 41162 ft 521 kts
2026-05-04 02:46 29.19003 124.86924 41161 ft 522 kts
2026-05-04 02:47 29.25862 124.89675 41164 ft 523 kts
2026-05-04 02:47 29.32734 124.92433 41164 ft 523 kts
2026-05-04 02:48 29.39607 124.95195 41162 ft 524 kts
2026-05-04 02:48 29.46489 124.97964 41159 ft 524 kts
2026-05-04 02:49 29.53370 125.00737 41163 ft 524 kts
2026-05-04 02:49 29.60251 125.03514 41161 ft 524 kts
2026-05-04 02:50 29.67128 125.06294 41158 ft 524 kts
2026-05-04 02:50 29.74004 125.09077 41161 ft 524 kts
2026-05-04 02:51 29.80883 125.11865 41156 ft 524 kts
2026-05-04 02:51 29.87761 125.14657 41158 ft 524 kts
2026-05-04 02:52 29.94645 125.17456 41168 ft 525 kts
2026-05-04 02:52 30.01540 125.20263 41167 ft 526 kts
2026-05-04 02:53 30.08440 125.23082 41165 ft 526 kts
2026-05-04 02:53 30.15344 125.25911 41168 ft 527 kts
2026-05-04 02:54 30.22261 125.28750 41168 ft 527 kts
2026-05-04 02:54 30.29177 125.31593 41171 ft 528 kts
2026-05-04 02:55 30.39567 125.35870 41165 ft 529 kts
2026-05-04 02:56 30.46501 125.38731 41167 ft 529 kts
2026-05-04 02:56 30.53441 125.41597 41164 ft 530 kts
2026-05-04 02:57 30.60335 125.44450 41166 ft 530 kts
2026-05-04 02:57 30.67287 125.47330 41167 ft 530 kts
2026-05-04 02:58 30.74240 125.50216 41164 ft 531 kts
2026-05-04 02:58 30.81204 125.53110 41160 ft 532 kts
2026-05-04 02:59 30.88170 125.56010 41162 ft 532 kts
2026-05-04 02:59 30.95144 125.58918 41162 ft 533 kts
2026-05-04 03:00 31.02123 125.61832 41161 ft 533 kts
2026-05-04 03:00 31.09106 125.64752 41159 ft 533 kts
2026-05-04 03:01 31.16096 125.67681 41161 ft 534 kts
2026-05-04 03:01 31.23041 125.70595 41169 ft 534 kts
2026-05-04 03:02 31.30035 125.73534 41162 ft 534 kts
2026-05-04 03:02 31.37033 125.76479 41156 ft 535 kts
2026-05-04 03:03 31.44035 125.79432 41146 ft 535 kts
2026-05-04 03:03 31.51032 125.82387 41153 ft 535 kts
2026-05-04 03:04 31.58029 125.85345 41157 ft 535 kts
2026-05-04 03:04 31.65033 125.88298 41149 ft 535 kts
2026-05-04 03:05 31.72035 125.91241 41149 ft 535 kts
2026-05-04 03:05 31.79035 125.94192 41151 ft 534 kts
2026-05-04 03:06 31.86035 125.97144 41152 ft 534 kts
2026-05-04 03:06 31.93033 126.00098 41152 ft 534 kts
2026-05-04 03:07 32.00035 126.03060 41148 ft 534 kts
2026-05-04 03:07 32.07035 126.06025 41143 ft 534 kts
2026-05-04 03:08 32.14025 126.08985 41142 ft 534 kts
2026-05-04 03:08 32.21023 126.11950 41144 ft 534 kts
2026-05-04 03:09 32.28017 126.14919 41145 ft 534 kts
2026-05-04 03:09 32.35015 126.17897 41142 ft 534 kts
2026-05-04 03:10 32.42014 126.20879 41134 ft 534 kts
2026-05-04 03:10 32.49006 126.23864 41136 ft 534 kts
2026-05-04 03:11 32.55997 126.26854 41136 ft 534 kts
2026-05-04 03:11 32.62941 126.29839 41140 ft 534 kts
2026-05-04 03:12 32.69906 126.32846 40955 ft 529 kts
2026-05-04 03:12 32.73359 126.34339 40651 ft 528 kts
2026-05-04 03:12 32.75697 126.35348 40411 ft 528 kts
2026-05-04 03:12 32.79150 126.36837 40069 ft 529 kts
2026-05-04 03:13 32.83727 126.38814 39672 ft 528 kts
2026-05-04 03:13 32.87171 126.40306 39419 ft 526 kts
2026-05-04 03:13 32.89496 126.41313 39262 ft 525 kts
2026-05-04 03:14 32.96330 126.44277 39154 ft 524 kts
2026-05-04 03:14 33.03278 126.47272 39135 ft 537 kts
2026-05-04 03:15 33.10384 126.50305 39139 ft 546 kts
2026-05-04 03:15 33.17540 126.53373 39143 ft 548 kts
2026-05-04 03:16 33.24709 126.56459 39132 ft 547 kts
2026-05-04 03:16 33.31728 126.59483 39126 ft 544 kts
2026-05-04 03:17 33.38786 126.62524 39128 ft 542 kts
2026-05-04 03:17 33.45857 126.65613 39129 ft 540 kts
2026-05-04 03:18 33.52917 126.68613 39137 ft 533 kts
2026-05-04 03:18 33.60052 126.70428 39139 ft 516 kts 353°
2026-05-04 03:19 33.67211 126.71144 39136 ft 517 kts 351°
2026-05-04 03:19 33.74413 126.71830 39135 ft 520 kts 352°
2026-05-04 03:20 33.81628 126.72600 39124 ft 520 kts 352°
2026-05-04 03:20 33.88825 126.73381 39119 ft 518 kts 352°
2026-05-04 03:21 33.95994 126.74133 39114 ft 516 kts 352°
2026-05-04 03:21 34.03134 126.74872 39104 ft 514 kts 352°
2026-05-04 03:22 34.10259 126.75614 39104 ft 513 kts 352°
2026-05-04 03:22 34.17373 126.76358 39101 ft 513 kts 352°
2026-05-04 03:23 34.24480 126.77107 39118 ft 511 kts 352°
2026-05-04 03:23 34.31532 126.77835 39075 ft 512 kts 352°
2026-05-04 03:24 34.38678 126.78588 39088 ft 513 kts 352°
2026-05-04 03:24 34.45790 126.79350 39086 ft 513 kts 352°
2026-05-04 03:25 34.52910 126.80108 39087 ft 514 kts 352°
2026-05-04 03:25 34.59988 126.80859 39086 ft 514 kts 352°
2026-05-04 03:26 34.67117 126.81619 39079 ft 514 kts 352°
2026-05-04 03:26 34.74252 126.82377 39082 ft 515 kts 352°
2026-05-04 03:27 34.81385 126.83141 39076 ft 515 kts 352°
2026-05-04 03:27 34.88514 126.83905 39071 ft 514 kts 352°
2026-05-04 03:28 34.95626 126.84669 39073 ft 512 kts 352°
2026-05-04 03:28 35.02712 126.85429 39063 ft 511 kts 352°
2026-05-04 03:29 35.09787 126.86186 39073 ft 510 kts 352°
2026-05-04 03:29 35.16860 126.86949 39074 ft 510 kts 352°
2026-05-04 03:30 35.23922 126.87719 39071 ft 509 kts 353°
2026-05-04 03:30 35.30971 126.88488 39079 ft 508 kts 353°
2026-05-04 03:31 35.38007 126.89261 39057 ft 506 kts 352°
2026-05-04 03:31 35.45018 126.90016 39076 ft 506 kts 352°
2026-05-04 03:32 35.52035 126.90788 39075 ft 506 kts 353°
2026-05-04 03:32 35.59012 126.91551 39073 ft 507 kts 353°
2026-05-04 03:33 35.66038 126.92320 39062 ft 507 kts 353°
2026-05-04 03:33 35.73054 126.93092 39053 ft 506 kts 353°
2026-05-04 03:34 35.80056 126.93861 39050 ft 505 kts 353°
2026-05-04 03:34 35.87049 126.94630 39057 ft 504 kts 353°
2026-05-04 03:35 35.94040 126.95403 39055 ft 504 kts 353°
2026-05-04 03:35 36.01012 126.96183 39047 ft 503 kts 354°
2026-05-04 03:36 36.07943 126.96964 38870 ft 494 kts 354°
2026-05-04 03:36 36.11361 126.97351 38206 ft 493 kts 353°
2026-05-04 03:36 36.14790 126.97730 37300 ft 496 kts 353°
2026-05-04 03:36 36.18245 126.98109 36420 ft 500 kts 353°
2026-05-04 03:37 36.21718 126.98494 35573 ft 502 kts 353°
2026-05-04 03:37 36.25199 126.98885 34771 ft 504 kts 354°
2026-05-04 03:37 36.28694 126.99281 33970 ft 505 kts 354°
2026-05-04 03:37 36.32182 126.99676 33152 ft 502 kts 354°
2026-05-04 03:38 36.35651 127.00070 32429 ft 498 kts 355°
2026-05-04 03:38 36.39077 127.00399 31653 ft 490 kts 352°
2026-05-04 03:38 36.42452 127.00377 30780 ft 482 kts 349°
2026-05-04 03:38 36.45784 127.00208 30017 ft 476 kts 349°
2026-05-04 03:39 36.49066 127.00030 29341 ft 468 kts 349°
2026-05-04 03:39 36.52287 126.99883 28842 ft 458 kts 350°
2026-05-04 03:39 36.55439 126.99761 28272 ft 450 kts 350°
2026-05-04 03:39 36.58550 126.99648 27621 ft 444 kts 351°
2026-05-04 03:40 36.61617 126.99539 26994 ft 438 kts 351°
2026-05-04 03:40 36.64641 126.99433 26383 ft 431 kts 351°
2026-05-04 03:40 36.67624 126.99326 25797 ft 425 kts 351°
2026-05-04 03:40 36.70560 126.99218 25242 ft 419 kts 352°
2026-05-04 03:41 36.73435 126.99012 24633 ft 408 kts 346°
2026-05-04 03:41 36.76089 126.98035 23978 ft 388 kts 332°
2026-05-04 03:41 36.78531 126.96624 23202 ft 387 kts 332°
2026-05-04 03:41 36.80993 126.95268 22466 ft 385 kts 333°
2026-05-04 03:42 36.83444 126.93965 21811 ft 381 kts 334°
2026-05-04 03:42 36.85874 126.92686 21163 ft 377 kts 334°
2026-05-04 03:42 36.88280 126.91421 20561 ft 373 kts 334°
2026-05-04 03:42 36.90565 126.90019 19830 ft 363 kts 324°
2026-05-04 03:43 36.92392 126.87854 19126 ft 363 kts 310°
2026-05-04 03:43 36.93812 126.85248 18533 ft 363 kts 302°
2026-05-04 03:43 36.94776 126.82339 17878 ft 365 kts 288°
2026-05-04 03:43 36.95240 126.79213 17209 ft 365 kts 284°
2026-05-04 03:44 36.95674 126.76096 16609 ft 363 kts 284°
2026-05-04 03:44 36.96125 126.73048 16056 ft 360 kts 285°
2026-05-04 03:44 36.96595 126.69990 15512 ft 357 kts 285°
2026-05-04 03:44 36.97070 126.66946 14973 ft 355 kts 285°
2026-05-04 03:45 36.97541 126.63926 14456 ft 353 kts 285°
2026-05-04 03:45 36.98002 126.60954 14328 ft 341 kts 285°
2026-05-04 03:45 36.98453 126.58132 14202 ft 317 kts 289°
2026-05-04 03:45 36.99274 126.55730 14056 ft 287 kts 305°
2026-05-04 03:46 37.00447 126.53844 13864 ft 266 kts 314°
2026-05-04 03:46 37.01712 126.52204 13590 ft 260 kts 316°
2026-05-04 03:46 37.02985 126.50617 13386 ft 256 kts 316°
2026-05-04 03:46 37.04235 126.49053 13164 ft 253 kts 316°
2026-05-04 03:47 37.05473 126.47494 12883 ft 252 kts 316°
2026-05-04 03:47 37.06704 126.45930 12559 ft 252 kts 316°
2026-05-04 03:47 37.07931 126.44361 12259 ft 252 kts 316°
2026-05-04 03:47 37.09154 126.42792 11954 ft 251 kts 316°
2026-05-04 03:48 37.10374 126.41226 11693 ft 251 kts 316°
2026-05-04 03:48 37.11581 126.39683 11558 ft 240 kts 317°
2026-05-04 03:48 37.12829 126.38425 11359 ft 223 kts 325°
2026-05-04 03:48 37.14089 126.37337 11169 ft 216 kts 326°
2026-05-04 03:49 37.15319 126.36275 10872 ft 214 kts 326°
2026-05-04 03:49 37.16549 126.35219 10486 ft 216 kts 326°
2026-05-04 03:49 37.17787 126.34143 10184 ft 215 kts 326°
2026-05-04 03:49 37.18939 126.33133 9948 ft 212 kts 326°
2026-05-04 03:50 37.20150 126.32068 9609 ft 212 kts 326°
2026-05-04 03:50 37.21356 126.31006 9279 ft 212 kts 326°
2026-05-04 03:50 37.22572 126.29929 8819 ft 217 kts 325°
2026-05-04 03:50 37.23785 126.28850 8435 ft 210 kts 325°
2026-05-04 03:51 37.25006 126.27895 7945 ft 206 kts 339°
2026-05-04 03:51 37.26430 126.27750 7488 ft 211 kts
2026-05-04 03:51 37.27820 126.28403 7052 ft 218 kts 26°
2026-05-04 03:51 37.28918 126.29761 6596 ft 226 kts 47°
2026-05-04 03:52 37.29827 126.31386 6155 ft 227 kts 49°
2026-05-04 03:52 37.30724 126.33024 5696 ft 227 kts 49°
2026-05-04 03:52 37.31625 126.34649 5236 ft 227 kts 49°
2026-05-04 03:52 37.32532 126.36266 4782 ft 226 kts 49°
2026-05-04 03:53 37.33347 126.37953 4297 ft 230 kts 66°
2026-05-04 03:53 37.33410 126.39970 3811 ft 238 kts 103°
2026-05-04 03:53 37.32498 126.41678 3359 ft 238 kts 141°
2026-05-04 03:53 37.31155 126.42845 3374 ft 237 kts 146°
2026-05-04 03:54 37.29783 126.44039 3286 ft 241 kts 146°
2026-05-04 03:54 37.28410 126.45241 3202 ft 241 kts 146°
2026-05-04 03:54 37.27038 126.46450 3115 ft 241 kts 145°
2026-05-04 03:54 37.25670 126.47656 3008 ft 238 kts 146°
2026-05-04 03:55 37.24317 126.48852 2923 ft 238 kts 145°
2026-05-04 03:55 37.23187 126.50320 2767 ft 237 kts 113°
2026-05-04 03:55 37.22999 126.52280 2666 ft 220 kts 72°
2026-05-04 03:55 37.23674 126.53916 2607 ft 208 kts 45°
2026-05-04 03:56 37.24696 126.55122 2489 ft 201 kts 27°
2026-05-04 03:56 37.25957 126.55831 2415 ft 199 kts 14°
2026-05-04 03:56 37.27272 126.56394 2325 ft 200 kts 13°
2026-05-04 03:56 37.28600 126.56692 2212 ft 192 kts 348°
2026-05-04 03:57 37.29806 126.56077 2168 ft 188 kts 329°
2026-05-04 03:57 37.30967 126.55292 2095 ft 190 kts 329°
2026-05-04 03:57 37.32098 126.54441 2009 ft 187 kts 325°
2026-05-04 03:57 37.33176 126.53522 1916 ft 188 kts 323°
2026-05-04 03:58 37.35312 126.51629 1768 ft 190 kts 322°
2026-05-04 03:58 37.36377 126.50683 1697 ft 182 kts 322°
2026-05-04 03:58 37.37349 126.49819 1621 ft 160 kts 322°
2026-05-04 03:59 37.38217 126.49046 1519 ft 154 kts 321°
2026-05-04 03:59 37.39111 126.48248 1316 ft 154 kts 322°
2026-05-04 03:59 37.39952 126.47500 1082 ft 138 kts 319°
2026-05-04 03:59 37.40705 126.46837 877 ft 132 kts 321°
2026-05-04 04:00 37.41207 126.46404 762 ft 133 kts 320°
2026-05-04 04:00 37.42216 126.45488 528 ft 135 kts 321°
2026-05-04 04:00 37.42981 126.44816 360 ft 134 kts 319°
2026-05-04 04:00 37.43739 126.44139 223 ft 135 kts 321°
2026-05-04 04:01 37.44499 126.43466 48 ft 129 kts 320°
2026-05-04 04:01 37.44945 126.43061 37 ft 111 kts 325°
2026-05-04 04:01 37.45471 126.42595 37 ft 67 kts 324°
2026-05-04 04:01 37.45793 126.42438 37 ft 41 kts 355°
2026-05-04 04:02 37.46001 126.42386 37 ft 21 kts 337°
2026-05-04 04:02 37.46078 126.42405 37 ft 10 kts 52°
2026-05-04 04:02 37.46084 126.42416 37 ft 0 kts 56°
2026-05-04 04:03 37.46088 126.42425 37 ft 4 kts 56°
2026-05-04 04:03 37.46116 126.42476 37 ft 20 kts 55°
2026-05-04 04:03 37.46206 126.42635 37 ft 19 kts 54°
2026-05-04 04:04 37.46218 126.42771 37 ft 16 kts 133°
2026-05-04 04:04 37.46129 126.42849 37 ft 16 kts 146°
2026-05-04 04:04 37.46037 126.42929 37 ft 16 kts 145°
2026-05-04 04:04 37.45945 126.43010 37 ft 16 kts 145°
2026-05-04 04:05 37.45853 126.43091 37 ft 16 kts 144°
2026-05-04 04:05 37.45762 126.43172 37 ft 16 kts 145°
2026-05-04 04:05 37.45671 126.43255 37 ft 16 kts 143°
2026-05-04 04:05 37.45581 126.43338 35 ft 16 kts 144°
2026-05-04 04:06 37.45490 126.43420 37 ft 17 kts 144°
2026-05-04 04:06 37.45376 126.43521 37 ft 21 kts 145°
2026-05-04 04:06 37.45260 126.43624 37 ft 21 kts 145°
2026-05-04 04:06 37.45143 126.43728 36 ft 21 kts 144°
2026-05-04 04:07 37.45026 126.43831 37 ft 21 kts 145°
2026-05-04 04:07 37.44929 126.43919 35 ft 14 kts 139°
2026-05-04 04:07 37.44935 126.44029 36 ft 14 kts 47°
2026-05-04 04:07 37.44994 126.44130 37 ft 14 kts 54°
2026-05-04 04:08 37.45052 126.44234 37 ft 14 kts 55°
2026-05-04 04:08 37.45102 126.44331 37 ft 13 kts 68°
2026-05-04 04:08 37.45081 126.44436 37 ft 12 kts 118°
2026-05-04 04:08 37.45065 126.44476 37 ft 3 kts 117°